Apalachicola, FL

10:58 PM EDT on September 20, 2014 (GMT -0400)
Apalachicola Municipal | Change Station
CLOSE
Current Station
Airport
Location: Apalachicola,
Elevation: 20 ft
Nearby Weather Stations

Elev 20 ft 29.73 °N, 85.03 °W | Updated 1 hour ago

Clear
Clear
77 °F
Feels Like 77 °F
N
6
Wind Variable Wind from ENE

Today
High -- | Low -- °F
--% Chance of Precip.
Yesterday
High -- | Low -- °F
Precip. -- in
7:27 AM 7:39 PM
Waning Crescent, 9% visible
Pressure 29.97 in
Visibility 10.0 miles
Clouds Clear
Dew Point 68 °F
Humidity 74%
Rainfall 0.00 in
Snow Depth Not available.
UV 0 out of 12
Pollen 9.00 out of 12
Air Quality Not available.
Flu Activity Not available.
METAR KAAF 210153Z AUTO 06005KT 10SM CLR 25/20 A2997 RMK AO2 SLP147 T02500200 TSNO $

More Conditions Fewer Conditions

Pressure 29.97 in
Visibility 10.0 miles
Clouds Clear
Dew Point 68 °F
Humidity 74%
Rainfall 0.00 in
Snow Depth Not available.
UV 0 out of 12
Pollen 9.00 out of 12
Air Quality Not available.
Flu Activity Not available.
METAR KAAF 210153Z AUTO 06005KT 10SM CLR 25/20 A2997 RMK AO2 SLP147 T02500200 TSNO $

More Conditions Fewer Conditions

10-Day Weather Forecast

Almanac

Astronomy

Sep. 20, 2014 Rise Set
Actual Time 7:27 AM EDT 7:39 PM EDT
Civil Twilight 7:03 AM EDT 8:02 PM EDT
Nautical Twilight 6:35 AM EDT 8:30 PM EDT
Astronomical Twilight 6:07 AM EDT 8:58 PM EDT
Moon 4:17 AM EDT (9/20) 5:31 PM EDT (9/20)
Length of Visible Light 12h 59m
Length of Day
12h 11m
Tomorrow will be 1m 46s shorter.
Waning Crescent, 9% of the Moon is Illuminated
Today
Waning Crescent
Sep 24
New
Oct 1
First Quarter
Oct 8
Full
Oct 15
Last Quarter

Today's Extremes

State Highs State Lows

Community

WunderPhotos

Upload Photos

1,755,066 photos uploaded!

WunderBlogs® & News

Nearby

Snow Depth

Station Depth Elevation
No new snow has been reported.

Earthquake Activity

City Distance Mag. Time & Date
No recent earthquake activity has been reported nearby.
Minimum magnitude displayed is 2.5.

Coastal Water Temperatures

Place Temperature
Panama City, FL 84.9 °F
Panama City Beach, FL 84.9 °F
Apalachicola, FL 82.9 °F

Nearby Weather Stations